Location: Township of Marena
(38.1747°N, 99.6798°W)
Time: 14:55:23
(UTC+00:00)

Meteor 2-5 Rocket - Pass Details

Date: 26 October 2020
Orbit: 833 x 911 km, 81.2° (Epoch: 28 November)

Event Time Altitude Azimuth Distance (km) Brightness Sun altitude
Rises 11:17:41 0° 187° (S) 3,401 6.8 -20.5°
Reaches altitude 10° 11:20:04 10° 188° (S) 2,479 6.1 -20.0°
Maximum altitude 11:25:42 89° 273° (W) 874 3.7 -18.9°
Drops below altitude 10° 11:31:31 10° 9° (N) 2,549 6.3 -17.8°
Sets 11:34:00 0° 9° (N) 3,503 7.0 -17.3°
